User: anonymous   Login
Location: Unspecified
(0.0000°N, 0.0000°E)
Time: 11:47:56
(UTC+00:00)
Language:

LITUANICASAT 2 - Orbit

View from above orbital plane
View from above orbital plane
View from above satellite
View from above satellite

Ground track
Ground track

The orbit data is extracted from the following two-line orbital elements,

1 42768U 17036D   18168.79256668 +.00001592 +00000-0 +73852-4 0  9993
2 42768 097.4024 228.2317 0017355 067.5093 292.7979 15.21376565054657
Epoch (UTC): 17 June 2018 19:01:17
Eccentricity: 0.0017355
inclination: 97.4024°
perigee height: 490 km
apogee height: 513 km
right ascension of ascending node: 228.2317°
argument of perigee: 67.5093°
revolutions per day: 15.21376565
mean anomaly at epoch: 292.7979°
orbit number at epoch: 5465

The dashed part of the orbit path shows where the satellite is in the earth's shadow,  

DLR